Tracking 32214 objects as of 19-Nov-2025
HD Live streaming from Space Station
objects crossing your sky now

STARLINK-34206

Track STARLINK-34206 now!
10-day predictions
STARLINK-34206 is classified as:


NORAD ID: 66098
Int'l Code: 2025-236N
Perigee: 425.1 km
Apogee: 426.2 km
Inclination: 53.2 °
Period: 92.9 minutes
Semi major axis: 6796 km
RCS: Unknown
Launch date: October 19, 2025
Source: United States (US)
Launch site: AIR FORCE WESTERN TEST RANGE (AFWTR)
Your satellite tracking list
Your tracking list is empty




NASA's NSSDC Master Catalog

Two Line Element Set (TLE):
1 66098U 25236N   25322.82999120  .00069329  00000-0  12401-2 0  9990
2 66098  53.1609 260.0742 0000760 117.5221 242.5866 15.49388491  5941
Source of the keplerian elements: AFSPC